Location: Unspecified
(0.0000°N, 0.0000°E)
Time: 12:08:25
(UTC+00:00)

Hubble Space Telescope - Pass Details

Date: 09 December 2019
Orbit: 536 x 540 km, 28.5° (Epoch: 10 December)

Event Time Altitude Azimuth Distance (km) Brightness Sun altitude
Exits shadow 04:23:03 42° 234° (SW) 772 1.3 -20.4°
Maximum altitude 04:24:23 84° 149° (SSE) 541 0.7 -20.1°
Drops below altitude 10° 04:28:31 10° 61° (ENE) 1,782 3.9 -19.2°
Sets 04:30:46 0° 61° (ENE) 2,671 4.9 -18.7°
